Погода в Мензе

Россия / Забайкальский край     49°25′47″N   108°51′27″E
темп.,
°C
ветер,
м/с
пор.,
м/с
влажн.,
%
обл.,
%
осадки,
мм/ч
давл.,
гПа
погр.,
м
28 февраля, вс
вс2800:00−24зсз119241 0.0 103820
03:00−25зюз119553 0.0 103820
06:00−25ююз129391 0.0 103819
09:00−25юз129391 0.0 104020
12:00−16ююз127190 0.0 1038403
15:00−13зсз375777 0.0 10361747
18:00−15зсз366684 0.0 10371358
21:00−22зсз228842 0.0 104020
1 марта, пн
пн100:00−24зюз11880 0.0 104220
03:00−25юз12860 0.0 104120
06:00−26юз129239 0.0 104021
09:00−25юз229020 0.0 103922
12:00−15ююз25660 0.0 1034536
15:00−9з49510 0.0 10281855
18:00−10зюз37630 0.0 10261583
21:00−18зюз22840 0.0 102820
2 марта, вт
вт200:00−20юз228613 0.0 102620
03:00−19юз228857 0.0 102233
06:00−20юз228488 0.0 101929
09:00−18ююз228094 0.0 101836
12:00−8ююз2467100 0.0 1013350
15:00−2з41053100 0.0 10101503
18:00−4з3106785 0.0 1009729
21:00−10з228360 0.0 101251
3 марта, ср
ср300:00−11зюз1286100 0.0 101327
03:00−11зсз1293100 0.2 101328
06:00−14з129365 0.0 101420
09:00−15зюз229448 0.0 101623
12:00−7юз37650 0.0 1013981
15:00−5з5106017 0.1 10101707
18:00−6зсз4116587 0.1 10111460
21:00−13ссз228693 0.1 101421
4 марта, чт
чт400:00−15с1293100 0.0 101520
03:00−15ссв1297100 0.3 101656
06:00−16св1297100 0.6 101771
09:00−17ссв2397100 0.8 1021134
12:00−15св2383100 0.1 1021475
15:00−12ссв2381100 0.4 1023636
18:00−13ссз3576100 0.2 1026961
21:00−20сз229597 0.3 103220